Regional Weather Roundup
Issued by NWS

Home | Current Version | Previous Version | Graphics & Text | Print | Product List | Glossary On
Versions: 1 2 3 4 5 6 7 8 9 10 11 12 13 14 15 16 17 18 19 20 21 22 23 24 25 26 27 28 29 30 31 32 33 34 35 36 37 38 39 40 41 42 43 44 45 46 47 48 49 50
000
ASUS43 KLSX 012159
RWRMO

WEATHER SUMMARY FOR MISSOURI
NATIONAL WEATHER SERVICE SPRINGFIELD MO
400 PM CST SUN FEB 01 2015

NOTE: "FAIR" INDICATES FEW OR NO CLOUDS BELOW 12,000 FEET WITH NO
       SIGNIFICANT WEATHER AND/OR OBSTRUCTIONS TO VISIBILITY.
       CURRENT SKY AND/OR WEATHER CONDITIONS ARE NOT AVAILABLE FOR
       CHILLICOTHE AND FARMINGTON.

MOZ001>031-035>038-043-044-053-054-012300-
...NORTHERN AND WESTERN MISSOURI...

CITY           SKY/WX    TMP DP  RH WIND       PRES   REMARKS
KANSAS CTY INT LGT SNOW  22  18  85 NW21G33   29.96R FOG     WCI   6
KANSAS C DTWN  FLURRIES  25  18  74 NW18G31   29.97R WCI  11
LEE`S SUMMIT   LGT SNOW  24  19  81 NW23G31   29.94R WCI   9
ST JOSEPH      LGT SNOW  21  16  81 N25G38    30.02R VSB 3/4 WCI   4
CHILLICOTHE      N/A     26  19  74 N18G32    29.90R WCI  13
KIRKSVILLE     LGT SNOW  24  21  88 N23G29    29.83R FOG     WCI   9

$$
MOZ066>068-077>081-088>096-101>105-012300-
...SOUTHWEST MISSOURI...

CITY           SKY/WX    TMP DP  RH WIND       PRES   REMARKS
SPRINGFIELD    CLOUDY    31  26  82 W24G35    29.86R WCI  17
JOPLIN         CLOUDY    27  21  78 NW26G35   29.99R WCI  12

$$
MOZ032>034-039>042-045>050-055>058-069>072-012300-
...CENTRAL MISSOURI...

CITY           SKY/WX    TMP DP  RH WIND       PRES   REMARKS
COLUMBIA       LGT SNOW  34  33  96 NW14      29.74R FOG     WCI  25
JEFFERSON CITY CLOUDY    35  32  88 W15       29.76R WCI  25
ROLLA          CLOUDY    35  32  88 W17G25    29.71R WCI  25
SEDALIA        CLOUDY    31  27  85 NW21G32   29.84R WCI  18
OSAGE BEACH    CLOUDY    36  30  80 W12G23    29.79R WCI  27

$$
MOZ051-052-059>065-012300-
...EAST CENTRAL MISSOURI...

CITY           SKY/WX    TMP DP  RH WIND       PRES   REMARKS
ST LOUIS INTL  NOT AVBL
SPIRIT OF STL  LGT RAIN  39  36  89 NW13      29.67R FOG
ST CHARLES     CLOUDY    38  35  89 NW13      29.67R WCI  30

$$
MOZ072>076-082>087-097>100-106>115-012300-
...SOUTH CENTRAL AND SOUTHEAST MISSOURI...

CITY           SKY/WX    TMP DP  RH WIND       PRES   REMARKS
CAPE GIRARDEAU CLOUDY    49  47  93 W9        29.65S
FARMINGTON     CLOUDY    45  37  76 W10       29.68S
POPLAR BLUFF   CLOUDY    50  41  71 W12G21    29.67R
WEST PLAINS    CLOUDY    38  33  82 W15G28    29.77R WCI  29

$$



USA.gov is the U.S. government's official web portal to all federal, state and local government web resources and services.